ATLAS 5 CENTAUR DEB, 46602

Orbit data source: Space-Track

ATLAS 5 CENTAUR DEB, 46602 is space debris in HEO originally from a launch on Wed, 17 Oct 2018 UTC launched from the Air Force Eastern Test Range (AFETR). Debris objects in space refer to the collection of defunct objects orbiting the Earth. Examples of debris include non-operational satellites, rocket bodies, and fragments generated from explosions, collisions, or faulty payload assembly.

Loading next visibility...
Identifier
46602, 2018-079CA
Orbit
HEO
Country
Flag of USUS
Related business
Flag of USUnited Launch Alliance/Lockheed Martin (US)
Manufacturer
ULA Decatur
Mission
Spacecraft
Bus & Motor
Unknown
Mass
Unknown
Launch date (UTC)
2018-10-17 (7 years ago)
Launch vehicle
Unknown
Launch site
Air Force Eastern Test Range (AFETR)
Object type
Payload
Rocket body
Debris
Shape & HBR
Unknown shape, 1.1 m
Radar Cross Section
Small (<0.1 m²)

Expand to show TLE details & history
Last TLE update: 1 day ago

TLE from 1 day ago
0 ATLAS 5 CENTAUR DEB
1 46602U 18079CA  25307.69009764 -.00000038  00000-0  00000+0 0  9992
2 46602  13.2633  57.6600 4676872 265.5705  41.7313  1.79050085 35947
Epoch: 2025-11-03T16:33Z
TLE epoch observation values (Epoch: 2025-11-03T16:33:44.436Z)
Latitude
0.00001°
Longitude
125.94424°
Altitude
16,837.272 km
Speed
4.519 km/s
True Right ascension
03h 50m 16s
True Declination
0° 00' 00"
Sunlit
Object was in daylight at epoch
Visualization orbit readout
Latitude
Unknown
Longitude
Unknown
Altitude
Unknown
Speed
Unknown
Apparent Right ascension
Unknown
Apparent Declination
Unknown
Sunlit
N/A
Visualization observer readout
Local Sidereal Time
16:14:44
Azimuth
Unknown
Elevation
Unknown
Doppler factor
Unknown
Orbital elements
Apogee altitude
35,670.347 km
Perigee altitude
8,872.351 km
Semi-major axis
28,649.486 km
Eccentricity
0.46769
Inclination
13.2633°
RAAN
57.66°
Arg. of periapsis
265.5705°
True anomaly
94.60055°
Mean anomaly
41.7313°
Eccentric anomaly
66.26041°
Mean motion
0.44758 °/min
Orbital period
804.33 mins
BSTAR
0
Loading maneuver chart data...
Computing Atmospheric mass density...

Documentation

Showing up to 5 results
|